Theta_e
351 350 350 349 346 345 345 347 348 348 351 353 352 351 351 348 342 338 335 334 332 327
349 349 347 347 347 344 346 345 346 347 349 350 350 350 347 339 335 333 330 329 326 321
346 348 349 350 347 347 347 341 341 344 345 347 347 342 337 334 332 329 325 323 322 321
344 345 347 347 348 349 346 339 337 333 342 340 337 335 332 329 325 323 321 320 317 315
342 344 345 346 348 350 346 340 335 331 336 334 334 331 325 322 322 319 317 316 314 312
338 343 345 347 347 342 333 331 333 331 329 326 326 323 322 320 318 316 314 313 311 310
339 342 344 345 344 332 332 330 326 324 322 319 318 317 316 314 312 310 308 307 305 305
339 340 341 330 328 327 328 327 322 320 319 317 316 314 312 310 308 305 303 302 301 301
337 336 329 325 322 318 316 315 316 315 314 313 311 304 306 306 304 303 300 299 299 299
336 333 328 328 324 319 316 316 313 312 312 308 307 303 303 305 303 300 298 297 298 300
332 332 330 326 322 320 317 314 313 311 308 305 304 302 301 303 304 303 302 302 305 302
330 329 327 323 317 315 312 311 309 307 305 303 302 299 299 304 304 304 303 304 303 301
327 323 321 317 312 313 310 307 305 303 304 303 302 299 300 303 303 298 297 297 295 297
322 319 317 313 312 309 308 305 303 301 302 302 302 301 298 299 300 296 295 295 294 293
Wind_Speed
11 7 8 10 10 8 9 12 13 11 12 10 10 9 9 8 7 8 7 9 7 7
9 9 9 11 10 9 10 4 13 16 15 13 11 13 11 9 10 10 9 9 10 8
11 8 8 7 10 10 9 4 10 8 12 12 14 13 14 12 9 11 9 9 11 7
9 8 7 7 8 9 5 10 9 4 8 13 15 15 14 13 13 14 12 11 12 10
10 12 9 8 7 4 7 11 16 21 13 11 15 14 16 14 13 15 14 12 12 9
16 10 9 7 6 8 10 10 4 18 18 18 16 15 15 14 14 14 14 13 13 10
12 12 10 7 6 12 14 16 15 8 15 14 15 16 17 16 15 16 14 14 15 9
10 13 11 12 14 12 12 13 16 19 14 11 13 12 17 16 16 17 16 16 15 10
5 16 14 16 15 16 15 15 15 14 14 14 10 14 17 15 14 16 17 17 11 10
9 17 15 16 16 17 17 16 17 16 15 14 16 6 22 22 12 11 16 14 13 11
12 16 16 16 15 13 14 15 14 13 15 17 12 16 11 25 15 9 12 9 9 10
9 14 17 16 16 14 15 14 14 14 15 22 15 18 5 11 13 11 12 9 11 11
12 15 17 18 18 13 15 15 15 16 13 27 18 16 9 10 10 11 9 9 11 15
13 15 17 17 16 16 15 16 16 19 17 17 16 14 13 16 10 8 10 8 6 6
Wind_Direction
205 201 215 214 209 200 204 204 186 190 186 164 153 137 125 129 106 100 84 69 77 73
194 201 214 222 214 206 210 235 199 184 177 162 141 131 129 114 109 104 94 81 83 77
172 191 223 229 230 217 214 182 281 169 164 148 129 119 117 112 116 109 101 97 88 84
173 181 207 225 236 243 194 145 131 342 156 131 121 126 120 114 115 107 102 95 90 82
184 166 187 219 220 236 212 174 180 165 164 136 119 123 116 122 120 117 109 105 97 90
186 147 172 200 182 116 93 86 132 133 129 119 121 114 114 116 110 103 99 91 86 87
172 153 176 163 138 122 142 137 102 60 84 108 122 117 118 116 110 99 85 85 74 59
170 150 125 102 105 114 114 114 122 128 130 129 119 126 128 119 117 111 104 80 84 88
178 129 125 121 119 110 106 104 110 115 120 123 109 112 114 123 118 108 102 106 106 104
148 132 140 132 131 131 129 125 120 120 116 106 103 63 117 99 94 94 117 133 135 129
155 144 146 135 124 121 130 128 126 120 120 108 98 90 99 116 105 137 118 130 119 108
161 151 148 125 120 130 123 116 117 116 119 112 103 88 69 102 123 119 96 105 97 84
155 146 137 126 123 121 116 113 107 102 123 119 122 119 130 125 106 105 102 83 74 73
143 140 131 126 127 122 119 113 117 118 120 110 116 134 127 110 118 123 113 93 87 77